Tracking 19149 objects as of 22-Apr-2018
HD Live streaming from Space Station
objects crossing your sky now

FENGYUN 1C DEB

Track FENGYUN 1C DEB now!
10-day predictions


NORAD ID: 31832
Int'l Code: 1999-025CHW
Perigee: 823.6 km
Apogee: 1,040.3 km
Inclination: 97.8 °
Period: 103.5 minutes
Semi major axis: 7302 km
RCS: 0.0021 m2 (small)
Launch date: May 10, 1999
Source: People's Republic of China (PRC)
Launch site: Taiyaun Space Center, China (TSC)

Note: This is SATELLITE DEBRIS
aabbcc
Your satellite tracking list
Your tracking list is empty




NASA's NSSDC Master Catalog

Two Line Element Set (TLE):
1 31832U 99025CHW 18093.03070817  .00001047  00000-0  78775-3 0  9998
2 31832  97.8177 175.4314 0148408 286.3740  72.0397 13.91086919549168
Source of the keplerian elements: AFSPC